Eau Claire, WI

7:48 AM CST on February 26, 2017 (GMT -0600)
Chippewa Valley Regional

Weather History for KEAU - December, 2013

Change the Weather History Date:

Monday, December 9, 2013

  Actual Average Record
Temperature  
Mean Temperature 2 °F 21 °F  
Max Temperature 10 °F 29 °F 56 °F (1939)
Min Temperature -7 °F 13 °F -22 °F (1927)
Degree Days  
Heating Degree Days 63 44  
Month to date heating degree days 452 383  
Since 1 July heating degree days 2197 2129  
Cooling Degree Days 0 0  
Month to date cooling degree days 0 0  
Year to date cooling degree days 653 579  
Moisture  
Dew Point -4 °F    
Average Humidity 73    
Maximum Humidity 83    
Minimum Humidity 62    
Precipitation  
Precipitation T in 0.04 in 0.78 in (2012)
Month to date precipitation 0.89 0.36  
Year to date precipitation 35.26 30.34  
Snow  
Snow T in 0.40 in 12.50 in (2012)
Month to date snowfall 5.7 2.8  
Since 1 July snowfall 7.9 9.1  
Snow Depth 4.00 in    
Sea Level Pressure  
Sea Level Pressure 30.04 in    
Wind  
Wind Speed 10 mph (WSW)    
Max Wind Speed 22 mph    
Max Gust Speed 28 mph    
Visibility 7 miles    
Events Snow    
T = Trace of Precipitation, MM = Missing Value Source: NWS Daily Summary

Daily Weather History Graph

Daily Weather History Graph

Search for Another Location

Airport or City:

Trip Planner

Search our weather history database for the weather conditions in past years. The results will help you decide how hot, cold, wet, or windy it might be!

Date:

Astronomy

Dec. 09, 2013 Rise Set
Actual Time 7:32 AM CST 4:24 PM CST
Civil Twilight 6:58 AM CST 4:58 PM CST
Nautical Twilight 6:21 AM CST 5:35 PM CST
Astronomical Twilight 5:46 AM CST 6:10 PM CST
Moon 12:10 PM CST (12/9) No Moon Set
Length of Visible Light 9h 59m
Length of Day
8h 52m
Waxing Crescent, 51% of the Moon is Illuminated
Dec 9
Waxing Crescent
Dec 17
Full
Dec 25
Last Quarter
Jan 1
New
Jan 7
First Quarter

Hourly Weather History & Observations

Time (CST) Temp. Windchill Dew Point Humidity Pressure Visibility Wind Dir Wind Speed Gust Speed Precip Events Conditions
12:56 AM 10.0 °F - 7.0 °F 87% 30.02 in 4.0 mi Calm Calm - 0.00 in Snow Light Snow
1:56 AM 9.0 °F 2.4 °F 6.1 °F 88% 30.02 in 9.0 mi WSW 3.5 mph - 0.00 in   Overcast
2:56 AM 10.0 °F 3.6 °F 6.1 °F 84% 30.01 in 4.0 mi WSW 3.5 mph - 0.00 in Snow Light Snow
3:56 AM 10.0 °F -0.9 °F 6.1 °F 84% 30.00 in 8.0 mi WSW 6.9 mph - 0.00 in   Overcast
4:56 AM 8.1 °F -0.5 °F 5.0 °F 87% 30.00 in 6.0 mi WSW 4.6 mph - 0.00 in Snow Light Snow
5:03 AM 6.8 °F -2.0 °F 3.2 °F 85% 29.94 in 7.0 mi SW 4.6 mph - N/A   Mostly Cloudy
5:49 AM 5.0 °F -6.9 °F 1.4 °F 85% 29.93 in 5.0 mi West 6.9 mph - 0.00 in Snow Light Snow
5:56 AM 5.0 °F -5.6 °F 1.9 °F 87% 30.00 in 7.0 mi West 5.8 mph - 0.00 in Snow Light Snow
6:56 AM 8.1 °F -6.2 °F 3.9 °F 83% 30.01 in 5.0 mi West 10.4 mph - 0.00 in Snow Light Snow
7:56 AM 8.1 °F -6.2 °F 3.9 °F 83% 30.01 in 4.0 mi WSW 10.4 mph - 0.00 in Snow Light Snow
8:20 AM 8.6 °F -7.0 °F 3.2 °F 79% 29.96 in 2.5 mi WSW 12.7 mph - 0.00 in Snow Light Snow
8:33 AM 6.8 °F -8.6 °F 1.4 °F 79% 29.96 in 3.0 mi WSW 11.5 mph - 0.00 in Snow Light Snow
8:56 AM 7.0 °F -8.3 °F 1.9 °F 80% 30.03 in 6.0 mi WSW 11.5 mph - 0.00 in   Haze
9:10 AM 6.8 °F -10.7 °F 1.4 °F 79% 29.97 in 1.8 mi WSW 15.0 mph 20.7 mph 0.00 in Snow Light Snow
9:16 AM 6.8 °F -11.8 °F 1.4 °F 79% 29.97 in 3.0 mi WSW 17.3 mph 23.0 mph 0.01 in Snow Light Snow
9:56 AM 3.0 °F -17.3 °F -2.9 °F 76% 30.06 in 8.0 mi West 18.4 mph 25.3 mph 0.01 in   Mostly Cloudy
10:13 AM 3.2 °F -17.6 °F -5.8 °F 66% 30.00 in 9.0 mi WSW 19.6 mph 25.3 mph N/A   Partly Cloudy
10:39 AM 1.4 °F -18.8 °F -5.8 °F 72% 30.00 in 3.0 mi West 17.3 mph 24.2 mph N/A Snow Blowing Snow
10:48 AM 1.4 °F -17.6 °F -5.8 °F 72% 30.00 in 5.0 mi West 15.0 mph 27.6 mph N/A Snow Blowing Snow
10:56 AM 1.9 °F -18.7 °F -5.1 °F 72% 30.07 in 5.0 mi West 18.4 mph 26.5 mph N/A Snow Blowing Snow
11:53 AM 1.4 °F -18.2 °F -5.8 °F 72% 30.00 in 1.8 mi West 16.1 mph 21.9 mph 0.00 in   Overcast
11:56 AM 1.0 °F -20.4 °F -6.0 °F 72% 30.07 in 2.0 mi West 19.6 mph 25.3 mph 0.00 in   Mostly Cloudy
12:06 PM 1.4 °F -19.4 °F -9.4 °F 61% 30.01 in 9.0 mi West 18.4 mph 27.6 mph 0.00 in   Mostly Cloudy
12:56 PM 1.0 °F -20.4 °F -9.0 °F 63% 30.09 in 8.0 mi WSW 19.6 mph 25.3 mph 0.00 in   Overcast
1:56 PM 1.0 °F -19.9 °F -9.0 °F 63% 30.10 in 10.0 mi WSW 18.4 mph 26.5 mph N/A   Mostly Cloudy
2:56 PM 1.0 °F -17.3 °F -9.0 °F 63% 30.12 in 10.0 mi WSW 13.8 mph 23.0 mph N/A   Mostly Cloudy
3:06 PM 1.4 °F -18.8 °F -9.4 °F 61% 30.05 in 10.0 mi WSW 17.3 mph 23.0 mph N/A   Scattered Clouds
3:56 PM -0.0 °F -18.7 °F -9.9 °F 63% 30.14 in 10.0 mi West 13.8 mph - N/A   Clear
4:56 PM -2.0 °F -17.7 °F -9.9 °F 69% 30.14 in 10.0 mi WSW 9.2 mph - N/A   Clear
5:56 PM -2.9 °F -16.5 °F -11.0 °F 68% 30.16 in 10.0 mi WSW 6.9 mph - N/A   Clear
6:56 PM -4.0 °F -17.8 °F -11.9 °F 69% 30.16 in 10.0 mi SW 6.9 mph - N/A   Clear
7:56 PM -6.0 °F -18.6 °F -11.9 °F 75% 30.14 in 10.0 mi SSW 5.8 mph - N/A   Clear
8:56 PM -6.0 °F -22.6 °F -11.0 °F 79% 30.14 in 10.0 mi SSW 9.2 mph - N/A   Clear
9:56 PM -7.1 °F -19.9 °F -11.9 °F 79% 30.12 in 10.0 mi South 5.8 mph - N/A   Clear
10:56 PM -5.1 °F -17.6 °F -11.0 °F 76% 30.08 in 10.0 mi South 5.8 mph - N/A   Scattered Clouds
11:56 PM -4.0 °F -17.8 °F -9.9 °F 76% 30.05 in 10.0 mi SSE 6.9 mph - N/A   Overcast